Location: Penzberg
(47.7615°N, 11.3159°E)
Time: 12:27:37
(UTC+02:00)

ISS - Visible Passes

Search period start: 13 May 2021 00:00
Search period end: 23 May 2021 00:00
Orbit: 417 x 422 km, 51.6° (Epoch: 13 May)

Date Brightness Start Highest point End Pass type
(mag) Time Alt. Az. Time Alt. Az. Time Alt. Az.
13 May -0.9 00:32:06 12° ENE 00:32:06 12° ENE 00:32:21 10° ENE visible
13 May -2.5 02:05:02 31° NW 02:06:02 41° N 02:09:16 10° ENE visible
13 May -3.3 03:39:49 10° WNW 03:43:11 62° NNE 03:46:33 10° E visible
14 May -2.6 01:18:38 43° N 01:18:38 43° N 01:21:45 10° ENE visible
14 May -2.9 02:52:23 10° WNW 02:55:41 50° NNE 02:59:00 10° E visible
14 May -3.5 04:29:15 10° WNW 04:32:32 48° SSW 04:35:48 10° SE visible
14 May -3.7 22:50:52 10° SW 22:54:08 49° SSE 22:55:36 27° E visible
15 May -2.9 00:27:41 10° W 00:30:58 50° NNW 00:34:17 10° ENE visible
15 May -2.6 02:04:54 10° WNW 02:08:10 44° N 02:11:26 10° E visible
15 May -3.9 03:41:46 10° WNW 03:45:08 72° SSW 03:48:31 10° ESE visible
15 May -3.1 22:03:43 10° SSW 22:06:47 33° SE 22:09:51 10° ENE visible
15 May -3.3 23:40:08 10° W 23:43:28 61° NNW 23:46:50 10° ENE visible
16 May -2.4 01:17:24 10° WNW 01:20:38 41° N 01:23:51 10° ENE visible
16 May -3.8 02:54:19 10° WNW 02:57:42 82° NNE 03:01:05 10° ESE visible
16 May -2.5 04:31:34 10° W 04:34:12 21° SW 04:36:51 10° S visible
16 May -3.7 22:52:38 10° WSW 22:56:00 80° NNW 22:59:23 10° ENE visible
17 May -2.4 00:29:51 10° WNW 00:33:05 41° N 00:36:19 10° ENE visible
17 May -3.3 02:06:53 10° WNW 02:10:14 62° NNE 02:13:36 10° E visible
17 May -3.1 03:43:52 10° W 03:46:55 32° SW 03:49:57 10° SSE visible
17 May -3.9 22:05:12 10° WSW 22:08:33 74° SSE 22:11:56 10° ENE visible
17 May -2.6 23:42:18 10° W 23:45:32 43° N 23:48:47 10° ENE visible
18 May -2.9 01:19:25 10° WNW 01:22:43 50° NNE 01:22:56 49° NNE visible
18 May -2.8 22:54:43 10° W 22:58:00 50° NNW 23:01:19 10° ENE visible
19 May -2.6 00:31:56 10° WNW 00:35:12 44° N 00:36:31 28° ENE visible
19 May -1.3 02:08:48 10° WNW 02:09:26 15° WNW 02:09:26 15° WNW visible
19 May -3.2 22:07:09 10° W 22:10:30 61° NNW 22:13:50 10° ENE visible
19 May -2.5 23:44:25 10° WNW 23:47:39 41° N 23:50:21 14° ENE visible
20 May -2.3 01:21:20 10° WNW 01:23:16 32° WNW 01:23:16 32° WNW visible
20 May -2.4 22:56:53 10° WNW 23:00:06 41° N 23:03:20 10° ENE visible
21 May -3.4 00:33:53 10° WNW 00:37:12 63° NNE 00:37:12 63° NNE visible
21 May -2.5 22:09:18 10° W 22:12:33 43° N 22:15:48 10° ENE visible
21 May -3.0 23:46:26 10° WNW 23:49:44 51° NNE 23:51:10 28° ENE visible
22 May -1.4 01:23:18 10° WNW 01:24:06 16° WNW 01:24:06 16° WNW visible
22 May -2.7 22:58:57 10° WNW 23:02:12 44° N 23:05:10 12° E visible
